Location: Hartford
(41.7640°N, 72.6860°W)
Time: 13:29:33
(UTC-04:00)

ISS - Visible Passes

Search period start: 26 April 2018 00:00
Search period end: 06 May 2018 00:00
Orbit: 402 x 407 km, 51.6° (Epoch: 27 April)

Date Brightness Start Highest point End Pass type
(mag) Time Alt. Az. Time Alt. Az. Time Alt. Az.
30 Apr -1.0 04:48:30 10° SE 04:49:20 11° SE 04:50:10 10° ESE visible
02 May -2.1 04:38:25 12° S 04:40:54 25° SE 04:43:39 10° ENE visible
03 May -1.4 03:48:15 13° SE 03:48:46 14° SE 03:50:29 10° E visible
04 May -3.6 04:30:39 22° SW 04:32:32 62° SE 04:35:47 10° ENE visible
05 May -2.6 03:40:20 31° SE 03:40:20 31° SE 03:43:14 10° ENE visible
